Flag for U.S.A. Weather past 2 weeks in Allentown, Pennsylvania, U.S.A.

Now
61 °F

Sunny.


Feels Like: 61 °F
Forecast: 54 / 71 °F
Wind: No wind

Location: Lehigh Valley International Airport

Current Time: Sep 15, 2014 at 9:16:56 PM

Latest Report: Sep 15, 2014 at 7:51 PM


Visibility: 10 mi

Pressure: 30.11 "Hg

Humidity: 65%

Dew point: 49 °F

Location of AllentownLocation

Historic Weather in Allentown — Graph

°F

Allentown temperature yesterday

Maximum temperature yesterday: 67 °F (at 2:51 PM)
Minimum temperature yesterday: 49 °F (at 3:51 AM)
Average temperature yesterday: 57 °F

Past Weeks' High & Low Weather Summary

 TemperatureHumidityPressure
High91 °F (Sep 6, 1:51 PM)97% (Sep 15, 5:51 AM)30.31 "Hg (Sep 15, 5:51 AM)
Low43 °F (Sep 15, 5:51 AM)32% (Sep 7, 3:51 PM)29.81 "Hg (Sep 2, 6:51 PM)
Average69 °F71%30.09 "Hg
* Reported Aug 31 7:51 PM — Sep 15 7:51 PM, Allentown, Weather by CustomWeather, © 2014

Note: Actual official high and low records may vary slightly from our data, if they occured in-between our weather recording intervals... More about our weather records

Advertising

Allentown weather history for previous 24 hours

 ConditionsComfort  
Time TempWeatherWind HumidityBarometerVisibility
7:51 PM
Sep 15
61 °FSunny.No wind65%30.11 "Hg10 mi
6:51 PM65 °FSunny.No wind52%30.11 "Hg10 mi
5:51 PM68 °FSunny.7 mph45%30.12 "Hg10 mi
4:51 PM69 °FSunny.3 mph44%30.13 "Hg10 mi
3:51 PM69 °FSunny.No wind42%30.14 "Hg10 mi
2:51 PM69 °FSunny.No wind39%30.16 "Hg10 mi
1:51 PM68 °FSunny.3 mph39%30.18 "Hg10 mi
12:51 PM67 °FScattered clouds.No wind42%30.22 "Hg10 mi
11:51 AM66 °FSunny.3 mph43%30.22 "Hg10 mi
10:51 AM63 °FSunny.3 mph56%30.25 "Hg10 mi
9:51 AM57 °FSunny.No wind72%30.26 "Hg10 mi
8:51 AM52 °FSunny.No wind83%30.26 "Hg10 mi
7:51 AM47 °FSunny.No wind90%30.27 "Hg10 mi
6:51 AM43 °FClear.No wind93%30.25 "Hg10 mi
5:51 AM43 °FClear.No wind97%30.24 "Hg10 mi
4:51 AM45 °FClear.No wind90%30.23 "Hg7 mi
3:51 AM45 °FFog.No wind93%30.23 "Hg4 mi
2:51 AM47 °FClear.No wind90%30.22 "Hg10 mi
1:51 AM47 °FClear.No wind93%30.22 "Hg10 mi
12:51 AM49 °FClear.3 mph90%30.21 "Hg10 mi
11:51 PM
Sep 14
50 °FClear.No wind89%30.21 "Hg10 mi
10:51 PM54 °FClear.3 mph80%30.21 "Hg10 mi
9:51 PM52 °FClear.No wind86%30.21 "Hg10 mi
Weather by CustomWeather, © 2014

See weather overviewHow to use our weather pages